Location: Newark
(44.3248°N, 23.7839°E)
Time: 01:29:30
(UTC+00:00)

X-37B - Visible Passes

Search period start: 11 June 2023 00:00
Search period end: 21 June 2023 00:00
Orbit: 277 x 277 km, 45.0° (Epoch: 01 November)

Date Brightness Start Highest point End Pass type
(mag) Time Alt. Az. Time Alt. Az. Time Alt. Az.
11 Jun 2.6 00:44:18 12° SE 00:44:18 12° SE 00:44:50 10° ESE visible
12 Jun 1.9 00:44:41 19° SE 00:44:41 19° SE 00:46:07 10° E visible
13 Jun 1.0 00:45:03 32° SE 00:45:03 32° SE 00:47:01 10° E visible
14 Jun 0.1 00:45:24 53° SSE 00:45:24 53° SSE 00:47:47 10° E visible
15 Jun -0.3 00:45:46 64° SW 00:46:02 78° SSE 00:48:30 10° E visible
16 Jun -0.1 00:46:09 46° W 00:46:44 81° N 00:49:11 10° E visible
17 Jun 0.1 00:46:35 35° WNW 00:47:26 71° N 00:49:53 10° E visible
18 Jun 0.1 00:47:07 30° WNW 00:48:09 72° N 00:50:36 10° E visible
19 Jun -0.1 00:47:51 31° WNW 00:48:51 83° N 00:51:19 10° E visible
20 Jun -0.3 00:48:54 43° W 00:49:33 75° SSW 00:52:00 10° ESE visible
